AEE504 LGTS-LTFM

Flight info

Callsign AEE504
Flight time N/A
Altitude 33000
Route ARNAS UM603 PEREN UN644 DIGTI UT162 DRAMO
Aircraft A21N/M-SDE2FGIJ1RWY/SB1

Departure

Time 2026-05-07 14:44
Airport Thessaloniki Macedonia International Airport (LGTS)

Arrival

Time N/A
Airport İstanbul Airport (LTFM)
Time Latitude Longitude Altitude Speed Heading
2026-05-07 14:24 40.52280 22.97629 26 ft 0 kts 43°
2026-05-07 14:36 40.52269 22.97616 24 ft 2 kts 45°
2026-05-07 14:36 40.52257 22.97600 13 ft 2 kts 48°
2026-05-07 14:36 40.52245 22.97585 34 ft 2 kts 62°
2026-05-07 14:37 40.52239 22.97564 34 ft 2 kts 123°
2026-05-07 14:37 40.52250 22.97545 29 ft 0 kts 140°
2026-05-07 14:39 40.52249 22.97545 26 ft 1 kts 140°
2026-05-07 14:39 40.52221 22.97580 28 ft 11 kts 137°
2026-05-07 14:40 40.52143 22.97660 26 ft 17 kts 144°
2026-05-07 14:40 40.52051 22.97773 28 ft 18 kts 137°
2026-05-07 14:40 40.51987 22.97917 27 ft 20 kts 103°
2026-05-07 14:40 40.51954 22.98095 26 ft 17 kts 104°
2026-05-07 14:41 40.51923 22.98260 27 ft 20 kts 104°
2026-05-07 14:41 40.51886 22.98455 28 ft 24 kts 104°
2026-05-07 14:41 40.51848 22.98665 28 ft 22 kts 103°
2026-05-07 14:41 40.51809 22.98795 27 ft 11 kts 143°
2026-05-07 14:42 40.51731 22.98783 27 ft 13 kts 219°
2026-05-07 14:42 40.51684 22.98666 30 ft 16 kts 255°
2026-05-07 14:42 40.51689 22.98607 29 ft 0 kts 285°
2026-05-07 14:43 40.51695 22.98578 27 ft 14 kts 284°
2026-05-07 14:43 40.51786 22.98092 27 ft 95 kts 284°
2026-05-07 14:43 40.51994 22.96979 28 ft 156 kts 284°
2026-05-07 14:43 40.52292 22.95492 542 ft 169 kts 284°
2026-05-07 14:44 40.52611 22.93953 1323 ft 175 kts 284°
2026-05-07 14:44 40.52929 22.92363 1984 ft 187 kts 284°
2026-05-07 14:44 40.53272 22.90627 2510 ft 206 kts 284°
2026-05-07 14:44 40.53651 22.88699 3062 ft 230 kts 283°
2026-05-07 14:45 40.54071 22.86567 3753 ft 251 kts 283°
2026-05-07 14:45 40.54523 22.84270 4585 ft 264 kts 283°
2026-05-07 14:45 40.55051 22.81942 5668 ft 267 kts 294°
2026-05-07 14:45 40.56117 22.79989 6773 ft 271 kts 316°
2026-05-07 14:46 40.57755 22.78728 7808 ft 279 kts 341°
2026-05-07 14:46 40.59706 22.78553 8819 ft 290 kts
2026-05-07 14:46 40.61597 22.79580 9780 ft 303 kts 34°
2026-05-07 14:46 40.63034 22.81663 10585 ft 319 kts 59°
2026-05-07 14:47 40.63962 22.84439 10991 ft 345 kts 71°
2026-05-07 14:47 40.64356 22.87572 11395 ft 365 kts 91°
2026-05-07 14:47 40.64125 22.90930 12151 ft 372 kts 101°
2026-05-07 14:47 40.63605 22.94294 12974 ft 378 kts 104°
2026-05-07 14:48 40.62956 22.97679 13791 ft 385 kts 106°
2026-05-07 14:48 40.62262 23.01102 14582 ft 389 kts 106°
2026-05-07 14:48 40.61561 23.04552 15401 ft 391 kts 106°
2026-05-07 14:48 40.60863 23.08029 16170 ft 395 kts 106°
2026-05-07 14:49 40.60161 23.11544 16934 ft 399 kts 106°
2026-05-07 14:49 40.59451 23.15100 17657 ft 404 kts 106°
2026-05-07 14:49 40.58728 23.18689 18429 ft 407 kts 106°
2026-05-07 14:49 40.58000 23.22302 19061 ft 410 kts 106°
2026-05-07 14:50 40.57266 23.25951 19660 ft 415 kts 106°
2026-05-07 14:50 40.56526 23.29633 20265 ft 419 kts 106°
2026-05-07 14:50 40.55777 23.33357 20879 ft 423 kts 106°